Location: Drignac
(45.1667°N, 2.0333°E)
Time: 22:24:50
(UTC+00:00)

ADEOS Rocket - Pass Details

Date: 29 March 2020
Orbit: 858 x 1307 km, 98.7° (Epoch: 29 May)

Event Time Altitude Azimuth Distance (km) Brightness Sun altitude
Rises 19:11:54 0° 10° (N) 4,072 6.3 -10.4°
Reaches altitude 10° 19:14:42 10° 6° (N) 3,044 5.7 -10.9°
Maximum altitude 19:21:17 51° 293° (WNW) 1,315 4.2 -12.0°
Drops below altitude 10° 19:27:11 10° 220° (SW) 2,728 5.6 -13.0°
Sets 19:29:35 0° 215° (SW) 3,617 6.2 -13.4°
